Time,TemperatureF,DewpointF,PressureIn,WindDirection,WindDirectionDegrees,WindSpeedMPH,WindSpeedGustMPH,Humidity,HourlyPrecipIn,Conditions,Clouds,dailyrainin,SolarRadiationWatts/m^2,SoftwareType,DateUTC
2013-02-08 00:01:00,59.0,55.0,-100.00,SW,219,0.0,3.0,88,0.00,,,0.00,0.000000,,2013-02-08 06:01:00,
2013-02-08 00:11:00,59.0,55.0,-100.00,SW,219,0.0,3.0,88,0.00,,,0.00,0.000000,,2013-02-08 06:11:00,
2013-02-08 00:21:00,59.0,55.0,-100.00,SW,219,0.0,3.0,88,0.00,,,0.00,0.000000,,2013-02-08 06:21:00,
2013-02-08 00:31:00,59.0,55.0,-100.00,SW,219,0.0,3.0,88,0.00,,,0.00,0.000000,,2013-02-08 06:31:00,
2013-02-08 00:32:00,59.0,55.0,-100.00,West,268,0.0,3.0,88,0.00,,,0.00,0.000000,,2013-02-08 06:32:00,
2013-02-08 00:52:00,59.0,55.0,-100.00,West,268,0.0,3.0,88,0.00,,,0.00,0.000000,,2013-02-08 06:52:00,
2013-02-08 01:01:00,59.0,55.0,-100.00,West,268,0.0,3.0,88,0.00,,,0.00,0.000000,,2013-02-08 07:01:00,
2013-02-08 01:11:00,59.0,55.0,-100.00,West,268,0.0,3.0,88,0.00,,,0.00,0.000000,,2013-02-08 07:11:00,
2013-02-08 01:21:00,59.0,55.0,-100.00,West,268,0.0,3.0,88,0.00,,,0.00,0.000000,,2013-02-08 07:21:00,
2013-02-08 01:32:00,59.0,56.0,-100.00,WSW,248,0.0,2.0,90,0.00,,,0.00,0.000000,,2013-02-08 07:32:00,
2013-02-08 01:52:00,59.0,56.0,-100.00,WSW,248,0.0,2.0,90,0.00,,,0.00,0.000000,,2013-02-08 07:52:00,
2013-02-08 02:01:00,59.0,56.0,-100.00,WSW,248,0.0,2.0,90,0.00,,,0.00,0.000000,,2013-02-08 08:01:00,
2013-02-08 02:11:00,59.0,56.0,-100.00,WSW,248,0.0,2.0,90,0.00,,,0.00,0.000000,,2013-02-08 08:11:00,
2013-02-08 02:21:00,59.0,56.0,-100.00,WSW,248,0.0,2.0,90,0.00,,,0.00,0.000000,,2013-02-08 08:21:00,
2013-02-08 02:32:00,60.0,56.0,-100.00,WSW,244,2.0,4.0,87,0.00,,,0.00,0.000000,,2013-02-08 08:32:00,
2013-02-08 02:52:00,60.0,56.0,-100.00,WSW,244,2.0,4.0,87,0.00,,,0.00,0.000000,,2013-02-08 08:52:00,
2013-02-08 03:03:00,60.0,56.0,-100.00,WSW,244,2.0,4.0,87,0.00,,,0.00,0.000000,,2013-02-08 09:03:00,
2013-02-08 03:11:00,60.0,56.0,-100.00,WSW,244,2.0,4.0,87,0.00,,,0.00,0.000000,,2013-02-08 09:11:00,
2013-02-08 03:21:00,60.0,56.0,-100.00,WSW,244,2.0,4.0,87,0.00,,,0.00,0.000000,,2013-02-08 09:21:00,
2013-02-08 03:52:00,59.0,56.0,-100.00,West,268,2.0,4.0,90,0.00,,,0.00,0.000000,,2013-02-08 09:52:00,
2013-02-08 04:01:00,59.0,56.0,-100.00,West,268,2.0,4.0,90,0.00,,,0.00,0.000000,,2013-02-08 10:01:00,
2013-02-08 04:11:00,59.0,56.0,-100.00,West,268,2.0,4.0,90,0.00,,,0.00,0.000000,,2013-02-08 10:11:00,
2013-02-08 04:22:00,59.0,56.0,-100.00,West,268,2.0,4.0,90,0.00,,,0.00,0.000000,,2013-02-08 10:22:00,
2013-02-08 04:31:00,59.0,56.0,-100.00,West,268,2.0,4.0,90,0.00,,,0.00,0.000000,,2013-02-08 10:31:00,
2013-02-08 04:32:00,60.0,57.0,-100.00,West,268,6.0,11.0,91,0.00,,,-99.99,0.000000,,2013-02-08 10:32:00,
2013-02-08 04:52:00,60.0,57.0,-100.00,West,268,6.0,11.0,91,0.00,,,-99.99,0.000000,,2013-02-08 10:52:00,
2013-02-08 05:01:00,60.0,57.0,-100.00,West,268,6.0,11.0,91,0.00,,,-99.99,0.000000,,2013-02-08 11:01:00,
2013-02-08 05:11:00,60.0,57.0,-100.00,West,268,6.0,11.0,91,0.00,,,-99.99,0.000000,,2013-02-08 11:11:00,
2013-02-08 05:21:00,60.0,57.0,-100.00,West,268,6.0,11.0,91,0.00,,,-99.99,0.000000,,2013-02-08 11:21:00,
2013-02-08 05:32:00,60.0,56.0,-100.00,West,277,4.0,9.0,87,0.00,,,0.00,0.000000,,2013-02-08 11:32:00,
2013-02-08 05:52:00,60.0,56.0,-100.00,West,277,4.0,9.0,87,0.00,,,0.00,0.000000,,2013-02-08 11:52:00,
2013-02-08 06:02:00,60.0,56.0,-100.00,West,277,4.0,9.0,87,0.00,,,0.00,0.000000,,2013-02-08 12:02:00,
2013-02-08 06:11:00,60.0,56.0,-100.00,West,277,4.0,9.0,87,0.00,,,0.00,0.000000,,2013-02-08 12:11:00,
2013-02-08 06:22:00,60.0,56.0,-100.00,West,277,4.0,9.0,87,0.00,,,0.00,0.000000,,2013-02-08 12:22:00,
2013-02-08 06:32:00,60.0,55.0,-100.00,WNW,286,4.0,10.0,83,0.00,,,0.00,0.000000,,2013-02-08 12:32:00,
2013-02-08 06:52:00,60.0,55.0,-100.00,WNW,286,4.0,10.0,83,0.00,,,0.00,0.000000,,2013-02-08 12:52:00,
2013-02-08 07:01:00,60.0,55.0,-100.00,WNW,286,4.0,10.0,83,0.00,,,0.00,0.000000,,2013-02-08 13:01:00,
2013-02-08 07:11:00,60.0,55.0,-100.00,WNW,286,4.0,10.0,83,0.00,,,0.00,0.000000,,2013-02-08 13:11:00,
2013-02-08 07:22:00,60.0,55.0,-100.00,WNW,286,4.0,10.0,83,0.00,,,0.00,0.000000,,2013-02-08 13:22:00,
2013-02-08 07:32:00,59.0,54.0,-100.00,WNW,302,4.0,8.0,84,0.00,,,0.00,5.000000,,2013-02-08 13:32:00,
2013-02-08 07:52:00,59.0,54.0,-100.00,WNW,302,4.0,8.0,84,0.00,,,0.00,5.000000,,2013-02-08 13:52:00,
2013-02-08 08:02:00,59.0,54.0,-100.00,WNW,302,4.0,8.0,84,0.00,,,0.00,5.000000,,2013-02-08 14:02:00,
2013-02-08 08:11:00,59.0,54.0,-100.00,WNW,302,4.0,8.0,84,0.00,,,0.00,5.000000,,2013-02-08 14:11:00,
2013-02-08 08:22:00,59.0,54.0,-100.00,WNW,302,4.0,8.0,84,0.00,,,0.00,5.000000,,2013-02-08 14:22:00,
2013-02-08 08:32:00,59.0,55.0,-100.00,NNE,12,4.0,11.0,86,0.00,,,0.00,27.000000,,2013-02-08 14:32:00,
2013-02-08 08:52:00,59.0,55.0,-100.00,NNE,12,4.0,11.0,86,0.00,,,0.00,27.000000,,2013-02-08 14:52:00,
2013-02-08 09:02:00,59.0,55.0,-100.00,NNE,12,4.0,11.0,86,0.00,,,0.00,27.000000,,2013-02-08 15:02:00,
2013-02-08 09:11:00,59.0,55.0,-100.00,NNE,12,4.0,11.0,86,0.00,,,0.00,27.000000,,2013-02-08 15:11:00,
2013-02-08 09:22:00,59.0,55.0,-100.00,NNE,12,4.0,11.0,86,0.00,,,0.00,27.000000,,2013-02-08 15:22:00,
2013-02-08 09:32:00,59.0,52.0,-100.00,NNE,24,6.0,15.0,77,0.00,,,0.00,75.000000,,2013-02-08 15:32:00,
2013-02-08 09:52:00,59.0,52.0,-100.00,NNE,24,6.0,15.0,77,0.00,,,0.00,75.000000,,2013-02-08 15:52:00,
2013-02-08 10:01:00,59.0,52.0,-100.00,NNE,24,6.0,15.0,77,0.00,,,0.00,75.000000,,2013-02-08 16:01:00,
2013-02-08 10:11:00,59.0,52.0,-100.00,NNE,24,6.0,15.0,77,0.00,,,0.00,75.000000,,2013-02-08 16:11:00,
2013-02-08 10:22:00,59.0,52.0,-100.00,NNE,24,6.0,15.0,77,0.00,,,0.00,75.000000,,2013-02-08 16:22:00,
2013-02-08 10:32:00,59.0,50.0,-100.00,NNE,22,5.0,19.0,73,0.00,,,0.00,138.000000,,2013-02-08 16:32:00,
2013-02-08 10:52:00,59.0,50.0,-100.00,NNE,22,5.0,19.0,73,0.00,,,0.00,138.000000,,2013-02-08 16:52:00,
2013-02-08 11:03:00,59.0,50.0,-100.00,NNE,22,5.0,19.0,73,0.00,,,0.00,138.000000,,2013-02-08 17:03:00,
2013-02-08 11:12:00,59.0,50.0,-100.00,NNE,22,5.0,19.0,73,0.00,,,0.00,138.000000,,2013-02-08 17:12:00,
2013-02-08 11:22:00,59.0,50.0,-100.00,NNE,22,5.0,19.0,73,0.00,,,0.00,138.000000,,2013-02-08 17:22:00,
2013-02-08 11:32:00,58.0,50.0,-100.00,NE,37,4.0,12.0,76,0.00,,,0.00,169.000000,,2013-02-08 17:32:00,
2013-02-08 11:53:00,58.0,50.0,-100.00,NE,37,4.0,12.0,76,0.00,,,0.00,169.000000,,2013-02-08 17:53:00,
2013-02-08 12:02:00,58.0,50.0,-100.00,NE,37,4.0,12.0,76,0.00,,,0.00,169.000000,,2013-02-08 18:02:00,
2013-02-08 12:12:00,58.0,50.0,-100.00,NE,37,4.0,12.0,76,0.00,,,0.00,169.000000,,2013-02-08 18:12:00,
2013-02-08 12:24:00,58.0,50.0,-100.00,NE,37,4.0,12.0,76,0.00,,,0.00,169.000000,,2013-02-08 18:24:00,
2013-02-08 12:32:00,58.0,49.0,-100.00,NNE,32,6.0,12.0,73,0.00,,,0.00,145.000000,,2013-02-08 18:32:00,
2013-02-08 12:53:00,58.0,49.0,-100.00,NNE,32,6.0,12.0,73,0.00,,,0.00,145.000000,,2013-02-08 18:53:00,
2013-02-08 13:02:00,58.0,49.0,-100.00,NNE,32,6.0,12.0,73,0.00,,,0.00,145.000000,,2013-02-08 19:02:00,
2013-02-08 13:11:00,58.0,49.0,-100.00,NNE,32,6.0,12.0,73,0.00,,,0.00,145.000000,,2013-02-08 19:11:00,
2013-02-08 13:22:00,58.0,49.0,-100.00,NNE,32,6.0,12.0,73,0.00,,,0.00,145.000000,,2013-02-08 19:22:00,
2013-02-08 13:32:00,56.0,49.0,-100.00,NE,36,5.0,12.0,78,0.00,,,0.00,83.000000,,2013-02-08 19:32:00,
2013-02-08 13:52:00,56.0,49.0,-100.00,NE,36,5.0,12.0,78,0.00,,,0.00,83.000000,,2013-02-08 19:52:00,
2013-02-08 14:02:00,56.0,49.0,-100.00,NE,36,5.0,12.0,78,0.00,,,0.00,83.000000,,2013-02-08 20:02:00,
2013-02-08 14:11:00,56.0,49.0,-100.00,NE,36,5.0,12.0,78,0.00,,,0.00,83.000000,,2013-02-08 20:11:00,
2013-02-08 14:22:00,56.0,49.0,-100.00,NE,36,5.0,12.0,78,0.00,,,0.00,83.000000,,2013-02-08 20:22:00,
2013-02-08 14:32:00,56.0,47.0,-100.00,NE,35,5.0,13.0,72,0.00,,,0.00,132.000000,,2013-02-08 20:32:00,
2013-02-08 14:52:00,56.0,47.0,-100.00,NE,35,5.0,13.0,72,0.00,,,0.00,132.000000,,2013-02-08 20:52:00,
2013-02-08 15:02:00,56.0,47.0,-100.00,NE,35,5.0,13.0,72,0.00,,,0.00,132.000000,,2013-02-08 21:02:00,
2013-02-08 15:11:00,56.0,47.0,-100.00,NE,35,5.0,13.0,72,0.00,,,0.00,132.000000,,2013-02-08 21:11:00,
2013-02-08 15:22:00,56.0,47.0,-100.00,NE,35,5.0,13.0,72,0.00,,,0.00,132.000000,,2013-02-08 21:22:00,
2013-02-08 15:32:00,56.0,45.0,-100.00,NE,48,7.0,14.0,66,0.00,,,0.00,114.000000,,2013-02-08 21:32:00,
2013-02-08 15:52:00,56.0,45.0,-100.00,NE,48,7.0,14.0,66,0.00,,,0.00,114.000000,,2013-02-08 21:52:00,
2013-02-08 16:02:00,56.0,45.0,-100.00,NE,48,7.0,14.0,66,0.00,,,0.00,114.000000,,2013-02-08 22:02:00,
2013-02-08 16:11:00,56.0,45.0,-100.00,NE,48,7.0,14.0,66,0.00,,,0.00,114.000000,,2013-02-08 22:11:00,
2013-02-08 16:22:00,56.0,45.0,-100.00,NE,48,7.0,14.0,66,0.00,,,0.00,114.000000,,2013-02-08 22:22:00,
2013-02-08 16:32:00,56.0,44.0,-100.00,ENE,60,6.0,13.0,63,0.00,,,-99.99,139.000000,,2013-02-08 22:32:00,
2013-02-08 16:52:00,56.0,44.0,-100.00,ENE,60,6.0,13.0,63,0.00,,,-99.99,139.000000,,2013-02-08 22:52:00,
2013-02-08 17:01:00,56.0,44.0,-100.00,ENE,60,6.0,13.0,63,0.00,,,-99.99,139.000000,,2013-02-08 23:01:00,
2013-02-08 17:11:00,56.0,44.0,-100.00,ENE,60,6.0,13.0,63,0.00,,,-99.99,139.000000,,2013-02-08 23:11:00,
2013-02-08 17:21:00,56.0,44.0,-100.00,ENE,60,6.0,13.0,63,0.00,,,-99.99,139.000000,,2013-02-08 23:21:00,
2013-02-08 17:32:00,56.0,44.0,-100.00,NE,52,3.0,14.0,64,0.00,,,0.00,64.000000,,2013-02-08 23:32:00,
2013-02-08 17:52:00,56.0,44.0,-100.00,NE,52,3.0,14.0,64,0.00,,,0.00,64.000000,,2013-02-08 23:52:00,
2013-02-08 18:02:00,56.0,44.0,-100.00,NE,52,3.0,14.0,64,0.00,,,0.00,64.000000,,2013-02-09 00:02:00,
2013-02-08 18:11:00,56.0,44.0,-100.00,NE,52,3.0,14.0,64,0.00,,,0.00,64.000000,,2013-02-09 00:11:00,
2013-02-08 18:21:00,56.0,44.0,-100.00,NE,52,3.0,14.0,64,0.00,,,0.00,64.000000,,2013-02-09 00:21:00,
2013-02-08 18:32:00,49.0,44.0,-100.00,NE,48,0.0,5.0,83,0.00,,,0.00,4.000000,,2013-02-09 00:32:00,
2013-02-08 18:52:00,49.0,44.0,-100.00,NE,48,0.0,5.0,83,0.00,,,0.00,4.000000,,2013-02-09 00:52:00,
2013-02-08 19:01:00,49.0,44.0,-100.00,NE,48,0.0,5.0,83,0.00,,,0.00,4.000000,,2013-02-09 01:01:00,
2013-02-08 19:11:00,49.0,44.0,-100.00,NE,48,0.0,5.0,83,0.00,,,0.00,4.000000,,2013-02-09 01:11:00,
2013-02-08 19:22:00,49.0,44.0,-100.00,NE,48,0.0,5.0,83,0.00,,,0.00,4.000000,,2013-02-09 01:22:00,
2013-02-08 19:32:00,46.0,43.0,-100.00,ENE,63,0.0,2.0,89,0.00,,,0.00,0.000000,,2013-02-09 01:32:00,
2013-02-08 19:52:00,46.0,43.0,-100.00,ENE,63,0.0,2.0,89,0.00,,,0.00,0.000000,,2013-02-09 01:52:00,
2013-02-08 20:01:00,46.0,43.0,-100.00,ENE,63,0.0,2.0,89,0.00,,,0.00,0.000000,,2013-02-09 02:01:00,
2013-02-08 20:11:00,46.0,43.0,-100.00,ENE,63,0.0,2.0,89,0.00,,,0.00,0.000000,,2013-02-09 02:11:00,
2013-02-08 20:21:00,46.0,43.0,-100.00,ENE,63,0.0,2.0,89,0.00,,,0.00,0.000000,,2013-02-09 02:21:00,
2013-02-08 20:32:00,46.0,43.0,-100.00,NE,42,2.0,5.0,90,0.00,,,0.00,0.000000,,2013-02-09 02:32:00,
2013-02-08 20:53:00,46.0,43.0,-100.00,NE,42,2.0,5.0,90,0.00,,,0.00,0.000000,,2013-02-09 02:53:00,
2013-02-08 21:02:00,46.0,43.0,-100.00,NE,42,2.0,5.0,90,0.00,,,0.00,0.000000,,2013-02-09 03:02:00,
2013-02-08 21:11:00,46.0,43.0,-100.00,NE,42,2.0,5.0,90,0.00,,,0.00,0.000000,,2013-02-09 03:11:00,
2013-02-08 21:22:00,46.0,43.0,-100.00,NE,42,2.0,5.0,90,0.00,,,0.00,0.000000,,2013-02-09 03:22:00,
2013-02-08 21:32:00,47.0,41.0,-100.00,NNE,31,2.0,9.0,81,0.00,,,0.00,0.000000,,2013-02-09 03:32:00,
2013-02-08 21:53:00,47.0,41.0,-100.00,NNE,31,2.0,9.0,81,0.00,,,0.00,0.000000,,2013-02-09 03:53:00,
2013-02-08 22:02:00,47.0,41.0,-100.00,NNE,31,2.0,9.0,81,0.00,,,0.00,0.000000,,2013-02-09 04:02:00,
2013-02-08 22:12:00,47.0,41.0,-100.00,NNE,31,2.0,9.0,81,0.00,,,0.00,0.000000,,2013-02-09 04:12:00,
2013-02-08 22:23:00,47.0,41.0,-100.00,NNE,31,2.0,9.0,81,0.00,,,0.00,0.000000,,2013-02-09 04:23:00,
2013-02-08 22:32:00,46.0,41.0,-100.00,NE,52,3.0,7.0,81,0.00,,,0.00,0.000000,,2013-02-09 04:32:00,
2013-02-08 22:52:00,46.0,41.0,-100.00,NE,52,3.0,7.0,81,0.00,,,0.00,0.000000,,2013-02-09 04:52:00,
2013-02-08 23:02:00,46.0,41.0,-100.00,NE,52,3.0,7.0,81,0.00,,,0.00,0.000000,,2013-02-09 05:02:00,
2013-02-08 23:12:00,46.0,41.0,-100.00,NE,52,3.0,7.0,81,0.00,,,0.00,0.000000,,2013-02-09 05:12:00,
2013-02-08 23:22:00,46.0,41.0,-100.00,NE,52,3.0,7.0,81,0.00,,,0.00,0.000000,,2013-02-09 05:22:00,
2013-02-08 23:52:00,45.0,39.0,-100.00,NE,55,7.0,13.0,78,0.00,,,0.00,0.000000,,2013-02-09 05:52:00,